SL-19 DEB, 23494

Orbit data source: Space-Track

SL-19 DEB, 23494 is space debris in LEO originally from a launch on Mon, 26 Dec 1994 UTC launched from the Tyuratam Missile And Space Complex (TTMTR). Debris objects in space refer to the collection of defunct objects orbiting the Earth. Examples of debris include non-operational satellites, rocket bodies, and fragments generated from explosions, collisions, or faulty payload assembly.

Loading next visibility...
Identifier
23494, 1994-085S
Orbit
LEO
Country
Flag of CISCIS
Related business
Manufacturer
Unknown
Mission
Spacecraft
Bus & Motor
Unknown
Mass
Unknown
Launch date (UTC)
1994-12-26 (31 years ago)
Launch vehicle
Unknown
Launch site
Tyuratam Missile And Space Complex (TTMTR)
Object type
Payload
Rocket body
Debris
Shape & HBR
Unknown shape, 0.1 m
Radar Cross Section
Small (<0.1 m²)

Expand to show TLE details & history
Last TLE update: 23 hours ago

TLE from 23 hours ago
0 SL-19 DEB
1 23494U 94085S   25309.55889009 -.00005862  00000-0 -95456-1 0  9994
2 23494  64.9380  46.9449 0281265 117.7666 274.5538 11.68306343557903
Epoch: 2025-11-05T13:24Z
TLE epoch observation values (Epoch: 2025-11-05T13:24:48.103Z)
Latitude
26.18445°
Longitude
173.94443°
Altitude
1,816.162 km
Speed
6.983 km/s
True Right ascension
04h 00m 41s
True Declination
26° 03' 58"
Sunlit
Object was in full shadow at epoch
Visualization orbit readout
Latitude
Unknown
Longitude
Unknown
Altitude
Unknown
Speed
Unknown
Apparent Right ascension
Unknown
Apparent Declination
Unknown
Sunlit
N/A
Visualization observer readout
Local Sidereal Time
08:15:35
Azimuth
Unknown
Elevation
Unknown
Doppler factor
Unknown
Orbital elements
Apogee altitude
2,055.44 km
Perigee altitude
1,594.005 km
Semi-major axis
8,202.86 km
Eccentricity
0.02813
Inclination
64.938°
RAAN
46.9449°
Arg. of periapsis
117.7666°
True anomaly
271.33362°
Mean anomaly
274.5538°
Eccentric anomaly
272.9444°
Mean motion
2.92143 °/min
Orbital period
123.23 mins
BSTAR
-0.095456
Loading maneuver chart data...
Computing Atmospheric mass density...
Loading historical data...
Loading historical data...
Loading historical data...
Loading historical data...
Loading historical data...
Loading historical data...
Loading historical data...

Documentation

Showing up to 5 results
|